M0ZPG Weather Reports


time (UTC)temp
C
wind
direction
speed
KPH
gust
KPH
rain 1hr
cm
rain 24hr
cm
rain mn
cm
humidity
%
barometer
mb
20200702100843 17 247 3.2 12.9 0.00 0.33 0.00 76 1009.8
20200702095941 17 262 4.8 14.5 0.00 0.33 0.00 77 1009.8
20200702095041 17 262 4.8 12.9 0.00 0.33 0.00 77 1009.8
20200702094141 16 250 3.2 9.7 0.00 0.33 0.00 81 1009.6
20200702093241 16 243 4.8 14.5 0.00 0.33 0.00 82 1009.5
20200702092341 15 251 3.2 9.7 0.00 0.33 0.00 84 1009.5
20200702091441 16 257 4.8 12.9 0.00 0.33 0.00 82 1009.5
20200702090540 16 268 3.2 12.9 0.00 0.33 0.00 79 1009.5
20200702085641 16 260 3.2 11.3 0.00 0.33 0.00 80 1009.4
20200702084740 15 245 4.8 16.1 0.00 0.33 0.00 81 1009.5
20200702083841 15 241 3.2 14.5 0.00 0.33 0.00 81 1009.4
20200702082941 15 243 4.8 19.3 0.00 0.33 0.00 81 1009.5
20200702082040 16 254 3.2 12.9 0.00 0.33 0.00 79 1009.3
20200702081141 16 257 3.2 14.5 0.00 0.33 0.00 79 1009.2
20200702080241 16 249 4.8 12.9 0.00 0.33 0.00 79 1009.4
20200702075341 15 251 4.8 12.9 0.00 0.33 0.00 80 1009.3
20200702074441 15 237 4.8 16.1 0.00 0.33 0.00 80 1009.3
20200702073541 15 247 4.8 19.3 0.00 0.33 0.00 80 1009.2
20200702072650 15 251 4.8 14.5 0.00 0.33 0.00 80 1009.1
20200702071741 15 247 4.8 17.7 0.00 0.33 0.00 78 1009.0
20200702070844 16 254 3.2 14.5 0.00 0.33 0.00 77 1009.0
20200702065940 16 251 3.2 16.1 0.00 0.33 0.00 79 1009.0
20200702065040 15 246 3.2 14.5 0.00 0.33 0.00 79 1009.0
20200702064141 15 249 4.8 14.5 0.00 0.33 0.00 81 1009.0
20200702063240 15 248 4.8 16.1 0.00 0.33 0.00 81 1008.9
20200702062341 15 242 3.2 16.1 0.00 0.33 0.00 82 1008.9
20200702061440 14 239 1.6 11.3 0.00 0.33 0.00 84 1008.7
20200702060540 13 239 3.2 11.3 0.00 0.33 0.00 84 1008.7
20200702055640 13 250 1.6 12.9 0.00 0.33 0.00 86 1008.7
20200702054740 12 234 0.0 6.4 0.00 0.33 0.00 87 1008.6
20200702053840 12 209 0.0 3.2 0.00 0.33 0.00 89 1008.6
20200702052940 12 250 0.0 4.8 0.00 0.33 0.00 89 1008.5
20200702052040 12 241 1.6 11.3 0.00 0.33 0.00 89 1008.5
20200702051140 12 254 1.6 6.4 0.00 0.33 0.00 90 1008.5
20200702050240 12 248 0.0 6.4 0.00 0.33 0.00 90 1008.5
20200702045340 12 250 1.6 6.4 0.00 0.33 0.00 90 1008.5
20200702044441 12 243 1.6 6.4 0.00 0.33 0.00 90 1008.5
20200702043541 11 252 1.6 9.7 0.00 0.33 0.00 90 1008.5
20200702042645 11 244 1.6 8.0 0.00 0.33 0.00 91 1008.6
20200702041740 11 244 1.6 8.0 0.00 0.33 0.00 91 1008.5
20200702040840 11 238 1.6 8.0 0.00 0.33 0.00 91 1008.4
20200702035942 11 246 1.6 4.8 0.00 0.33 0.00 90 1008.5
20200702035040 11 240 0.0 4.8 0.00 0.33 0.00 90 1008.4
20200702034140 11 240 0.0 8.0 0.00 0.33 0.00 90 1008.3
20200702033242 11 256 0.0 6.4 0.00 0.33 0.00 90 1008.3
20200702032340 11 261 0.0 3.2 0.00 0.33 0.00 90 1008.3
20200702031441 11 243 0.0 4.8 0.00 0.33 0.00 90 1008.2
20200702030540 11 251 1.6 6.4 0.00 0.33 0.00 90 1008.1
20200702025640 12 234 0.0 6.4 0.00 0.33 0.00 90 1008.3
20200702024740 12 248 1.6 6.4 0.00 0.33 0.00 90 1008.3
20200702023840 12 248 0.0 4.8 0.00 0.33 0.00 89 1008.2
20200702022941 12 242 0.0 4.8 0.00 0.33 0.00 89 1008.1
20200702022041 12 236 1.6 3.2 0.00 0.33 0.00 89 1008.1
20200702021140 12 237 0.0 4.8 0.00 0.33 0.00 89 1008.0
20200702020240 12 244 1.6 4.8 0.00 0.33 0.00 89 1008.0
20200702015341 12 241 0.0 8.0 0.00 0.33 0.00 89 1007.9
20200702014440 12 242 1.6 8.0 0.00 0.33 0.00 89 1007.9
20200702013540 13 242 1.6 4.8 0.00 0.33 0.00 89 1007.9
20200702012640 13 243 0.0 8.0 0.00 0.33 0.00 88 1007.8
20200702011742 13 253 0.0 8.0 0.00 0.33 0.00 87 1007.8
20200702010840 13 251 1.6 6.4 0.00 0.33 0.00 85 1007.8
20200702005940 13 238 3.2 9.7 0.00 0.33 0.00 84 1007.8
20200702005040 13 239 3.2 16.1 0.00 0.33 0.00 84 1007.9
20200702004140 13 246 3.2 12.9 0.00 0.33 0.00 84 1007.8
20200702003241 13 238 3.2 9.7 0.00 0.33 0.00 86 1007.9
20200702002340 13 257 3.2 9.7 0.00 0.33 0.00 85 1007.8
20200702001441 13 252 3.2 14.5 0.00 0.33 0.00 86 1007.8
20200702000540 14 256 3.2 11.3 0.00 0.33 0.00 88 1007.7
20200701235640 14 249 3.2 14.5 0.00 0.33 0.00 89 1007.8
20200701234743 14 254 3.2 14.5 0.00 0.33 0.00 89 1007.8
20200701233841 15 247 3.2 12.9 0.00 0.33 0.00 90 1007.8
20200701232940 15 248 1.6 11.3 0.00 0.33 0.00 90 1007.6
20200701232040 15 238 1.6 8.0 0.00 0.33 0.00 90 1007.6
20200701231140 15 248 1.6 12.9 0.00 0.33 0.00 90 1007.5
20200701230240 15 243 1.6 8.0 0.00 0.33 0.00 91 1007.5
20200701225341 15 248 1.6 8.0 0.00 0.33 0.33 91 1007.5
20200701224440 15 242 1.6 6.4 0.00 0.33 0.33 91 1007.5
20200701223540 15 249 1.6 9.7 0.00 0.33 0.33 91 1007.4
20200701222640 15 240 1.6 8.0 0.00 0.33 0.33 91 1007.5
20200701221741 15 245 1.6 8.0 0.00 0.33 0.33 91 1007.3
20200701220840 15 236 1.6 6.4 0.00 0.33 0.33 92 1007.3
20200701215940 15 252 0.0 1.6 0.00 0.33 0.33 92 1007.4
20200701215040 15 256 0.0 4.8 0.00 0.33 0.33 91 1007.3
20200701214145 15 248 0.0 8.0 0.00 0.33 0.33 91 1007.3
20200701213245 15 237 1.6 8.0 0.00 0.33 0.33 91 1007.2
20200701212340 15 248 1.6 6.4 0.00 0.33 0.33 92 1007.2
20200701211440 15 251 1.6 6.4 0.00 0.33 0.33 92 1007.3
20200701210543 15 231 0.0 4.8 0.00 0.33 0.33 92 1007.1
20200701205640 15 233 1.6 6.4 0.00 0.33 0.33 92 1007.1
20200701204740 15 217 0.0 3.2 0.00 0.33 0.33 92 1007.1
20200701203841 15 244 0.0 3.2 0.00 0.33 0.33 92 1007.1
20200701202941 15 251 1.6 6.4 0.00 0.33 0.33 91 1007.0
20200701202041 15 257 0.0 4.8 0.00 0.33 0.33 91 1006.9
20200701201140 15 253 0.0 4.8 0.00 0.33 0.33 91 1006.9
20200701200240 15 264 0.0 4.8 0.00 0.33 0.33 91 1006.9
20200701195346 15 248 1.6 4.8 0.00 0.33 0.33 91 1006.8
20200701194440 15 242 0.0 4.8 0.00 0.33 0.33 91 1006.9
20200701193540 15 247 1.6 6.4 0.00 0.33 0.33 90 1006.8
20200701192640 15 250 3.2 11.3 0.00 0.33 0.33 90 1006.7
20200701191740 15 247 3.2 11.3 0.00 0.33 0.33 89 1006.8
20200701190840 16 249 4.8 9.7 0.00 0.33 0.33 89 1006.8
20200701185940 16 243 1.6 8.0 0.00 0.33 0.33 89 1006.7
20200701185040 16 259 1.6 11.3 0.00 0.33 0.33 89 1006.7
20200701184141 16 244 3.2 9.7 0.00 0.33 0.33 89 1006.6
20200701183242 16 245 3.2 11.3 0.00 0.33 0.33 88 1006.5
20200701182341 16 245 3.2 11.3 0.00 0.33 0.33 88 1006.4
20200701181440 16 257 1.6 8.0 0.00 0.33 0.33 88 1006.3
20200701180541 16 251 3.2 12.9 0.00 0.33 0.33 88 1006.3
20200701175640 16 250 3.2 16.1 0.00 0.33 0.33 88 1006.4
20200701174741 17 243 3.2 16.1 0.00 0.33 0.33 88 1006.4
20200701173840 17 253 1.6 8.0 0.00 0.33 0.33 89 1006.2
20200701172940 17 183 0.0 4.8 0.00 0.33 0.33 90 1006.3
20200701172043 17 220 1.6 11.3 0.00 0.33 0.33 89 1006.3
20200701171141 17 228 1.6 8.0 0.03 0.33 0.33 89 1006.2
20200701170241 17 230 1.6 8.0 0.03 0.33 0.33 90 1006.2
20200701165341 17 231 1.6 8.0 0.03 0.33 0.33 90 1006.2
20200701164440 17 249 1.6 8.0 0.03 0.33 0.33 90 1006.2
20200701163540 16 242 1.6 8.0 0.05 0.33 0.33 90 1006.2
20200701162643 16 230 1.6 4.8 0.10 0.33 0.33 90 1006.2
20200701161740 16 221 0.0 6.4 0.10 0.33 0.30 90 1006.0
20200701160840 16 152 1.6 6.4 0.10 0.33 0.30 90 1006.0
20200701155940 16 211 1.6 9.7 0.15 0.33 0.30 91 1006.1
20200701155040 16 240 1.6 8.0 0.20 0.33 0.30 90 1006.1
20200701154140 16 242 4.8 11.3 0.25 0.30 0.28 89 1006.1
20200701153242 16 262 3.2 11.3 0.23 0.25 0.23 88 1006.1
20200701152340 16 250 1.6 8.0 0.20 0.23 0.20 89 1006.1
20200701151443 16 258 1.6 14.5 0.20 0.23 0.20 89 1006.1
20200701150540 16 263 3.2 11.3 0.20 0.23 0.20 88 1006.2
20200701145640 16 272 4.8 17.7 0.15 0.15 0.15 84 1006.0
20200701144743 17 276 4.8 20.9 0.10 0.13 0.10 82 1005.9
20200701143840 18 294 3.2 8.0 0.00 0.03 0.00 75 1005.5
20200701142940 19 260 1.6 9.7 0.00 0.03 0.00 75 1005.4
20200701142040 19 254 4.8 20.9 0.00 0.03 0.00 72 1005.4
20200701141140 20 252 4.8 16.1 0.00 0.03 0.00 67 1005.3
20200701140243 21 253 8.0 19.3 0.00 0.03 0.00 62 1005.3
20200701135343 21 251 4.8 16.1 0.00 0.03 0.00 61 1005.1
20200701134442 21 232 3.2 12.9 0.00 0.03 0.00 62 1005.0
20200701133540 20 236 3.2 12.9 0.00 0.03 0.00 63 1005.1
20200701132640 21 231 4.8 16.1 0.00 0.03 0.00 61 1005.0
20200701131740 21 238 4.8 19.3 0.00 0.03 0.00 62 1005.0
20200701130840 21 243 3.2 9.7 0.00 0.03 0.00 63 1005.0
20200701125940 20 255 6.4 19.3 0.00 0.03 0.00 63 1005.0
20200701125040 20 251 4.8 20.9 0.00 0.03 0.00 62 1005.0
20200701124140 21 178 4.8 14.5 0.00 0.03 0.00 60 1004.9
20200701123241 21 198 4.8 20.9 0.00 0.03 0.00 58 1004.8
20200701122341 21 246 4.8 16.1 0.00 0.03 0.00 62 1005.0
20200701121440 20 247 4.8 16.1 0.00 0.03 0.00 63 1005.0
20200701120540 20 239 3.2 12.9 0.00 0.03 0.00 62 1004.9
20200701115640 21 244 4.8 17.7 0.00 0.03 0.00 59 1004.8
20200701114740 22 235 4.8 19.3 0.00 0.03 0.00 60 1004.7
20200701113840 22 243 6.4 17.7 0.00 0.03 0.00 58 1004.7
20200701112951 21 236 4.8 16.1 0.00 0.03 0.00 61 1004.6
20200701112040 21 241 4.8 17.7 0.00 0.03 0.00 60 1004.5
20200701111140 21 252 4.8 19.3 0.00 0.03 0.00 58 1004.4
20200701110240 21 246 4.8 17.7 0.00 0.05 0.00 63 1004.2
20200701105340 21 253 4.8 17.7 0.00 0.05 0.00 61 1004.5
20200701104441 20 254 4.8 19.3 0.00 0.05 0.00 62 1004.5
20200701103541 20 255 6.4 19.3 0.00 0.05 0.00 64 1004.6
20200701102640 20 249 4.8 17.7 0.00 0.05 0.00 63 1004.5
20200701101743 20 227 4.8 16.1 0.00 0.08 0.00 64 1004.6